AFR129 EDDK-LFPG

Flight info

Callsign AFR129
Flight time 0h 46m
Altitude 24000
Route NVO2R NVO Y868 SOGRI UM617 SISGA/N0404F230 UZ319 DELOM DCT MOPIL
Aircraft B772/H-SDE2E3FGHIJ5LORVWXY/LB1D1

Departure

Time 2026-04-20 13:50
Airport Cologne Bonn Airport (EDDK)

Arrival

Time 2026-04-20 14:37
Airport Charles de Gaulle International Airport (LFPG)
Time Latitude Longitude Altitude Speed Heading
2026-04-20 13:31 50.87666 7.12621 237 ft 0 kts 227°
2026-04-20 13:40 50.87668 7.12625 237 ft 3 kts 227°
2026-04-20 13:40 50.87687 7.12655 237 ft 4 kts 222°
2026-04-20 13:40 50.87707 7.12683 237 ft 4 kts 214°
2026-04-20 13:41 50.87730 7.12704 237 ft 4 kts 199°
2026-04-20 13:41 50.87753 7.12711 237 ft 4 kts 168°
2026-04-20 13:41 50.87766 7.12703 237 ft 0 kts 137°
2026-04-20 13:43 50.87713 7.12781 237 ft 20 kts 137°
2026-04-20 13:43 50.87609 7.12930 237 ft 20 kts 137°
2026-04-20 13:43 50.87500 7.13088 237 ft 25 kts 137°
2026-04-20 13:44 50.87392 7.13244 237 ft 17 kts 137°
2026-04-20 13:44 50.87307 7.13368 237 ft 17 kts 137°
2026-04-20 13:44 50.87220 7.13492 240 ft 17 kts 138°
2026-04-20 13:44 50.87134 7.13618 243 ft 17 kts 137°
2026-04-20 13:45 50.87047 7.13741 246 ft 17 kts 138°
2026-04-20 13:45 50.86962 7.13866 251 ft 17 kts 137°
2026-04-20 13:45 50.86876 7.13992 259 ft 17 kts 137°
2026-04-20 13:45 50.86790 7.14113 259 ft 17 kts 149°
2026-04-20 13:46 50.86681 7.14212 264 ft 19 kts 136°
2026-04-20 13:46 50.86579 7.14359 266 ft 22 kts 137°
2026-04-20 13:46 50.86465 7.14525 273 ft 22 kts 137°
2026-04-20 13:46 50.86350 7.14693 279 ft 22 kts 137°
2026-04-20 13:47 50.86235 7.14859 286 ft 22 kts 137°
2026-04-20 13:47 50.86119 7.15027 296 ft 23 kts 137°
2026-04-20 13:47 50.85994 7.15207 300 ft 25 kts 137°
2026-04-20 13:47 50.85859 7.15403 305 ft 27 kts 137°
2026-04-20 13:48 50.85743 7.15571 308 ft 19 kts 137°
2026-04-20 13:48 50.85639 7.15721 309 ft 21 kts 137°
2026-04-20 13:48 50.85524 7.15888 312 ft 23 kts 137°
2026-04-20 13:48 50.85395 7.16073 313 ft 26 kts 137°
2026-04-20 13:49 50.85339 7.16334 313 ft 26 kts 78°
2026-04-20 13:49 50.85436 7.16500 313 ft 14 kts 17°
2026-04-20 13:49 50.85534 7.16520 313 ft 14 kts 350°
2026-04-20 13:49 50.85600 7.16454 315 ft 12 kts 318°
2026-04-20 13:50 50.85836 7.16112 310 ft 93 kts 317°
2026-04-20 13:50 50.86527 7.15103 450 ft 165 kts 316°
2026-04-20 13:50 50.87422 7.13785 1460 ft 190 kts 318°
2026-04-20 13:50 50.88397 7.12381 2687 ft 195 kts 319°
2026-04-20 13:51 50.89486 7.10869 3433 ft 221 kts 319°
2026-04-20 13:51 50.90598 7.08998 4024 ft 246 kts 303°
2026-04-20 13:51 50.91151 7.06415 5186 ft 253 kts 276°
2026-04-20 13:51 50.90873 7.03600 6297 ft 261 kts 250°
2026-04-20 13:52 50.90195 7.00905 7335 ft 267 kts 252°
2026-04-20 13:52 50.89590 6.98083 8389 ft 273 kts 253°
2026-04-20 13:52 50.88990 6.95187 9442 ft 281 kts 253°
2026-04-20 13:52 50.88371 6.92212 10428 ft 288 kts 253°
2026-04-20 13:53 50.87716 6.89079 10917 ft 314 kts 253°
2026-04-20 13:53 50.86993 6.85645 11245 ft 342 kts 253°
2026-04-20 13:53 50.86222 6.82019 12149 ft 351 kts 253°
2026-04-20 13:53 50.85435 6.78336 13253 ft 355 kts 252°
2026-04-20 13:54 50.84639 6.74610 14359 ft 359 kts 253°
2026-04-20 13:54 50.83834 6.70849 15383 ft 362 kts 253°
2026-04-20 13:54 50.83016 6.67038 16290 ft 369 kts 252°
2026-04-20 13:54 50.82290 6.63129 17105 ft 371 kts 262°
2026-04-20 13:55 50.82194 6.59047 17683 ft 375 kts 273°
2026-04-20 13:55 50.82271 6.54953 18492 ft 376 kts 270°
2026-04-20 13:55 50.81856 6.50831 19137 ft 386 kts 252°
2026-04-20 13:55 50.80676 6.46996 19981 ft 389 kts 238°
2026-04-20 13:56 50.79072 6.43547 20640 ft 392 kts 234°
2026-04-20 13:56 50.77391 6.40103 21305 ft 398 kts 234°
2026-04-20 13:56 50.75681 6.36625 21971 ft 404 kts 234°
2026-04-20 13:56 50.73950 6.33104 22700 ft 408 kts 234°
2026-04-20 13:57 50.72202 6.29537 23428 ft 412 kts 234°
2026-04-20 13:57 50.70450 6.25949 24067 ft 413 kts 234°
2026-04-20 13:57 50.68695 6.22350 24187 ft 414 kts 235°
2026-04-20 13:57 50.66939 6.18741 24186 ft 415 kts 235°
2026-04-20 13:58 50.65185 6.15136 24190 ft 414 kts 235°
2026-04-20 13:58 50.63428 6.11528 24185 ft 414 kts 235°
2026-04-20 13:58 50.61673 6.07930 24181 ft 413 kts 235°
2026-04-20 13:58 50.59925 6.04348 24180 ft 412 kts 236°
2026-04-20 13:59 50.58199 6.00817 24181 ft 412 kts 236°
2026-04-20 13:59 50.56456 5.97256 24184 ft 411 kts 236°
2026-04-20 13:59 50.54709 5.93690 24184 ft 410 kts 236°
2026-04-20 13:59 50.52966 5.90140 24192 ft 410 kts 236°
2026-04-20 14:00 50.51225 5.86597 24200 ft 409 kts 236°
2026-04-20 14:00 50.49481 5.83051 24202 ft 409 kts 236°
2026-04-20 14:00 50.47736 5.79510 24196 ft 409 kts 236°
2026-04-20 14:00 50.45991 5.75975 24194 ft 408 kts 236°
2026-04-20 14:01 50.44252 5.72453 24187 ft 408 kts 236°
2026-04-20 14:01 50.42512 5.68937 24182 ft 407 kts 237°
2026-04-20 14:01 50.40772 5.65427 24185 ft 407 kts 237°
2026-04-20 14:01 50.39031 5.61917 24188 ft 407 kts 237°
2026-04-20 14:02 50.37293 5.58418 24191 ft 407 kts 237°
2026-04-20 14:02 50.35577 5.54967 24184 ft 407 kts 237°
2026-04-20 14:02 50.33812 5.51426 24192 ft 407 kts 237°
2026-04-20 14:02 50.32096 5.47985 24180 ft 406 kts 237°
2026-04-20 14:03 50.30353 5.44497 24178 ft 406 kts 237°
2026-04-20 14:03 50.28616 5.41024 24177 ft 405 kts 237°
2026-04-20 14:03 50.26880 5.37558 24187 ft 405 kts 237°
2026-04-20 14:03 50.25144 5.34096 24171 ft 404 kts 237°
2026-04-20 14:04 50.23412 5.30648 24170 ft 404 kts 237°
2026-04-20 14:04 50.21676 5.27194 24188 ft 403 kts 238°
2026-04-20 14:04 50.19942 5.23749 24184 ft 403 kts 238°
2026-04-20 14:04 50.18211 5.20314 24178 ft 403 kts 238°
2026-04-20 14:05 50.17061 5.18035 24176 ft 402 kts 238°
2026-04-20 14:05 50.15331 5.14612 24177 ft 402 kts 238°
2026-04-20 14:05 50.13601 5.11192 24178 ft 401 kts 238°
2026-04-20 14:05 50.11868 5.07770 24176 ft 401 kts 238°
2026-04-20 14:06 50.10138 5.04357 24177 ft 401 kts 238°
2026-04-20 14:06 50.08402 5.00940 24173 ft 401 kts 238°
2026-04-20 14:06 50.06669 4.97532 24174 ft 401 kts 238°
2026-04-20 14:06 50.04938 4.94130 24175 ft 401 kts 238°
2026-04-20 14:07 50.03206 4.90732 24167 ft 401 kts 238°
2026-04-20 14:07 50.01474 4.87339 24173 ft 401 kts 238°
2026-04-20 14:07 49.99737 4.83939 24174 ft 401 kts 238°
2026-04-20 14:07 49.98006 4.80558 24177 ft 400 kts 238°
2026-04-20 14:08 49.96271 4.77171 24169 ft 400 kts 239°
2026-04-20 14:08 49.94559 4.73836 24171 ft 400 kts 239°
2026-04-20 14:08 49.92803 4.70419 24169 ft 399 kts 239°
2026-04-20 14:08 49.91093 4.67096 24170 ft 399 kts 239°
2026-04-20 14:09 49.89359 4.63730 24170 ft 398 kts 239°
2026-04-20 14:09 49.87631 4.60380 24168 ft 398 kts 239°
2026-04-20 14:09 49.85905 4.57036 24171 ft 397 kts 239°
2026-04-20 14:09 49.84178 4.53694 24171 ft 397 kts 239°
2026-04-20 14:10 49.82450 4.50354 24166 ft 397 kts 239°
2026-04-20 14:10 49.80721 4.47020 24170 ft 397 kts 239°
2026-04-20 14:10 49.78989 4.43682 24169 ft 398 kts 239°
2026-04-20 14:10 49.77256 4.40345 24170 ft 398 kts 239°
2026-04-20 14:11 49.75520 4.37009 24175 ft 398 kts 239°
2026-04-20 14:11 49.73783 4.33675 24174 ft 398 kts 239°
2026-04-20 14:11 49.72043 4.30338 24167 ft 398 kts 239°
2026-04-20 14:11 49.70305 4.27010 24168 ft 399 kts 239°
2026-04-20 14:12 49.68559 4.23671 24169 ft 399 kts 239°
2026-04-20 14:12 49.66813 4.20336 24172 ft 399 kts 239°
2026-04-20 14:12 49.65067 4.17002 24170 ft 400 kts 239°
2026-04-20 14:12 49.63337 4.13705 24162 ft 400 kts 239°
2026-04-20 14:13 49.61585 4.10371 24166 ft 400 kts 238°
2026-04-20 14:13 49.59834 4.07041 24168 ft 400 kts 239°
2026-04-20 14:13 49.58197 4.03600 24178 ft 396 kts 243°
2026-04-20 14:13 49.56701 4.00027 23580 ft 400 kts 245°
2026-04-20 14:14 49.55231 3.96379 22672 ft 399 kts 245°
2026-04-20 14:14 49.53767 3.92778 21864 ft 394 kts 244°
2026-04-20 14:14 49.52397 3.89218 21639 ft 375 kts 249°
2026-04-20 14:14 49.51326 3.85579 21635 ft 377 kts 254°
2026-04-20 14:15 49.50468 3.81749 21639 ft 380 kts 258°
2026-04-20 14:15 49.49714 3.77849 21631 ft 381 kts 258°
2026-04-20 14:15 49.48962 3.73943 21630 ft 381 kts 258°
2026-04-20 14:15 49.48206 3.70024 21635 ft 381 kts 258°
2026-04-20 14:16 49.47486 3.66306 21625 ft 381 kts 258°
2026-04-20 14:16 49.46727 3.62405 21636 ft 380 kts 258°
2026-04-20 14:16 49.45967 3.58517 21638 ft 380 kts 258°
2026-04-20 14:16 49.45206 3.54635 21636 ft 380 kts 258°
2026-04-20 14:17 49.44442 3.50751 21634 ft 380 kts 258°
2026-04-20 14:17 49.43676 3.46865 21625 ft 380 kts 258°
2026-04-20 14:17 49.42920 3.43041 21629 ft 380 kts 258°
2026-04-20 14:17 49.42141 3.39107 21636 ft 380 kts 258°
2026-04-20 14:18 49.41381 3.35273 21633 ft 380 kts 258°
2026-04-20 14:18 49.40609 3.31387 21632 ft 380 kts 258°
2026-04-20 14:18 49.39835 3.27499 21638 ft 380 kts 258°
2026-04-20 14:18 49.39059 3.23614 21638 ft 381 kts 258°
2026-04-20 14:19 49.38282 3.19728 21637 ft 381 kts 258°
2026-04-20 14:19 49.37502 3.15840 21635 ft 381 kts 258°
2026-04-20 14:19 49.36720 3.11950 21551 ft 381 kts 258°
2026-04-20 14:19 49.35933 3.08028 20688 ft 385 kts 258°
2026-04-20 14:20 49.35145 3.04124 19963 ft 381 kts 257°
2026-04-20 14:20 49.34362 3.00261 19260 ft 377 kts 257°
2026-04-20 14:20 49.33587 2.96439 18586 ft 374 kts 257°
2026-04-20 14:20 49.32818 2.92645 17844 ft 371 kts 257°
2026-04-20 14:21 49.32053 2.88883 17150 ft 368 kts 257°
2026-04-20 14:21 49.31305 2.85207 16482 ft 364 kts 257°
2026-04-20 14:21 49.30549 2.81495 15745 ft 364 kts 256°
2026-04-20 14:21 49.29795 2.77799 15086 ft 362 kts 256°
2026-04-20 14:22 49.29288 2.75322 14663 ft 360 kts 256°
2026-04-20 14:22 49.28720 2.72554 14191 ft 359 kts 256°
2026-04-20 14:22 49.27972 2.68912 13530 ft 357 kts 256°
2026-04-20 14:23 49.27227 2.65288 12870 ft 356 kts 256°
2026-04-20 14:23 49.26487 2.61692 12256 ft 353 kts 255°
2026-04-20 14:23 49.25748 2.58108 11641 ft 352 kts 255°
2026-04-20 14:23 49.25248 2.55691 11218 ft 351 kts 255°
2026-04-20 14:24 49.24513 2.52143 10772 ft 345 kts 255°
2026-04-20 14:24 49.23800 2.48712 10633 ft 330 kts 255°
2026-04-20 14:24 49.23117 2.45433 10494 ft 317 kts 255°
2026-04-20 14:24 49.22469 2.42320 10353 ft 305 kts 255°
2026-04-20 14:25 49.21836 2.39287 10226 ft 293 kts 255°
2026-04-20 14:25 49.21228 2.36365 10093 ft 284 kts 255°
2026-04-20 14:25 49.20637 2.33535 9917 ft 276 kts 255°
2026-04-20 14:25 49.20056 2.30750 9609 ft 274 kts 255°
2026-04-20 14:26 49.19477 2.27984 9301 ft 271 kts 255°
2026-04-20 14:26 49.18905 2.25243 8979 ft 270 kts 255°
2026-04-20 14:26 49.18333 2.22516 8680 ft 269 kts 256°
2026-04-20 14:26 49.17760 2.19797 8372 ft 268 kts 255°
2026-04-20 14:27 49.17189 2.17097 8064 ft 266 kts 255°
2026-04-20 14:27 49.16545 2.14477 7748 ft 262 kts 240°
2026-04-20 14:27 49.15260 2.12533 7486 ft 263 kts 208°
2026-04-20 14:27 49.13513 2.11773 7203 ft 263 kts 181°
2026-04-20 14:28 49.11706 2.11923 6957 ft 261 kts 174°
2026-04-20 14:28 49.09874 2.12186 6661 ft 266 kts 173°
2026-04-20 14:28 49.08071 2.12449 6540 ft 260 kts 173°
2026-04-20 14:28 49.06288 2.12706 6396 ft 253 kts 173°
2026-04-20 14:29 49.04559 2.12945 6280 ft 246 kts 173°
2026-04-20 14:29 49.02877 2.13172 6166 ft 238 kts 173°
2026-04-20 14:29 49.01251 2.13393 6069 ft 231 kts 173°
2026-04-20 14:29 48.99668 2.13607 5849 ft 225 kts 170°
2026-04-20 14:30 48.98267 2.14397 5674 ft 207 kts 135°
2026-04-20 14:30 48.97531 2.16140 5503 ft 192 kts 98°
2026-04-20 14:30 48.97422 2.18125 5247 ft 186 kts 89°
2026-04-20 14:30 48.97408 2.20089 4995 ft 186 kts 86°
2026-04-20 14:31 48.97463 2.22021 4805 ft 182 kts 84°
2026-04-20 14:31 48.97548 2.23916 4488 ft 174 kts 83°
2026-04-20 14:31 48.97638 2.25685 4258 ft 164 kts 82°
2026-04-20 14:31 48.97731 2.27443 4050 ft 169 kts 82°
2026-04-20 14:32 48.97828 2.29237 3826 ft 171 kts 82°
2026-04-20 14:32 48.97924 2.31027 3611 ft 170 kts 82°
2026-04-20 14:32 48.98020 2.32829 3360 ft 169 kts 83°
2026-04-20 14:32 48.98115 2.34574 3145 ft 163 kts 82°
2026-04-20 14:33 48.98206 2.36296 2925 ft 163 kts 82°
2026-04-20 14:33 48.98297 2.38029 2708 ft 164 kts 82°
2026-04-20 14:33 48.98386 2.39694 2571 ft 153 kts 82°
2026-04-20 14:33 48.98469 2.41247 2360 ft 139 kts 81°
2026-04-20 14:34 48.98546 2.42674 2203 ft 138 kts 80°
2026-04-20 14:34 48.98623 2.44115 2004 ft 132 kts 81°
2026-04-20 14:34 48.98693 2.45445 1831 ft 125 kts 81°
2026-04-20 14:34 48.98750 2.46788 1722 ft 130 kts 83°
2026-04-20 14:35 48.98826 2.48164 1546 ft 130 kts 79°
2026-04-20 14:35 48.98913 2.49536 1483 ft 131 kts 81°
2026-04-20 14:35 48.98985 2.50951 1172 ft 134 kts 82°
2026-04-20 14:35 48.99056 2.52310 965 ft 128 kts 83°
2026-04-20 14:36 48.99103 2.53652 786 ft 126 kts 80°
2026-04-20 14:36 48.99210 2.55004 619 ft 131 kts 81°
2026-04-20 14:36 48.99280 2.56375 417 ft 130 kts 81°
2026-04-20 14:36 48.99350 2.57707 363 ft 114 kts 83°
2026-04-20 14:37 48.99409 2.58752 362 ft 81 kts 85°
2026-04-20 14:37 48.99444 2.59423 360 ft 46 kts 85°
2026-04-20 14:37 48.99459 2.59725 356 ft 26 kts 85°
2026-04-20 14:37 48.99530 2.59954 365 ft 18 kts 32°
2026-04-20 14:38 48.99569 2.59975 363 ft 7 kts 14°
2026-04-20 14:38 48.99617 2.59980 362 ft 4 kts 355°
2026-04-20 14:38 48.99647 2.59977 365 ft 5 kts 356°
2026-04-20 14:38 48.99673 2.59974 363 ft 0 kts 356°
2026-04-20 14:39 48.99676 2.59974 363 ft 0 kts 356°
2026-04-20 14:39 48.99678 2.59974 363 ft 1 kts 356°
2026-04-20 14:39 48.99776 2.59963 366 ft 27 kts 355°
2026-04-20 14:39 48.99912 2.60016 367 ft 18 kts 46°
2026-04-20 14:40 49.00004 2.60061 362 ft 2 kts 328°
2026-04-20 14:40 49.00026 2.60029 361 ft 12 kts 317°
2026-04-20 14:40 49.00091 2.59960 367 ft 11 kts 295°
2026-04-20 14:40 49.00092 2.59783 362 ft 22 kts 263°
2026-04-20 14:41 49.00079 2.59555 361 ft 22 kts 265°
2026-04-20 14:41 49.00107 2.59373 366 ft 13 kts 334°
2026-04-20 14:41 49.00198 2.59354 359 ft 13 kts 355°
2026-04-20 14:41 49.00238 2.59296 363 ft 6 kts 284°
2026-04-20 14:42 49.00236 2.59235 364 ft 3 kts 262°
2026-04-20 14:42 49.00235 2.59219 364 ft 0 kts 265°